Location: Wells
(51.2093°N, 2.6446°W)
Time: 10:03:02
(UTC+01:00)

CUTE-I - Pass Details

Date: 16 March 2026
Orbit: 804 x 818 km, 98.7° (Epoch: 20 April)

Event Time Altitude Azimuth Distance (km) Brightness Sun altitude
Rises 19:19:45 0° 223° (SW) 3,319 ? -10.6°
Reaches altitude 10° 19:23:45 10° 253° (WSW) 2,392 ? -11.2°
Maximum altitude 19:25:46 12° 276° (W) 2,248 ? -11.5°
Drops below altitude 10° 19:27:47 10° 299° (WNW) 2,396 ? -11.8°
Sets 19:31:49 0° 329° (NNW) 3,332 ? -12.5°
